Location: Berg
(47.2344°N, 9.5296°E)
Time: 17:37:10
(UTC+00:00)

AAUSAT CUBESAT 2 - Pass Details

Date: 01 December 2021
Orbit: 572 x 586 km, 97.5° (Epoch: 16 January)

Event Time Altitude Azimuth Distance (km) Brightness Sun altitude
Rises 05:12:21 0° 6° (N) 2,795 ? -15.6°
Reaches altitude 10° 05:14:36 10° 359° (N) 1,893 ? -15.2°
Maximum altitude 05:18:26 40° 290° (WNW) 860 ? -14.6°
Drops below altitude 10° 05:22:16 10° 220° (SW) 1,887 ? -14.0°
Sets 05:24:29 0° 213° (SSW) 2,784 ? -13.6°
